Date String (YYYY-MM-DD hh:mm:ss) UTC,Instrument flags,absolute air pressure of the measurement (hPa),sample flow rate (lpm),inlet stack bypass flow (lpm),air temperature of the measurement (°C),ambient temperature measured by the external sensor (°C),aerosol sample conditioner tube jacket temperature (°C),OPC LED temperature (°C),internal box temperature (°C),relative humidity of the measurement (%),span deviation,mass concentration of particles derived from Lorenz-Mie calculation of OPC scattering (μg/m³),mass concentration of particles derived from Lorenz-Mie calculation of OPC scattering (μg/m³),mass concentration of particles derived from Lorenz-Mie calculation of OPC scattering (μg/m³)
DateTimeUTC,F1_M11,P_M11,Q1_M11,Q2_M11,T1_M11,T2_M11,T3_M11,T4_M11,T5_M11,U1_M11,ZSPAN_M11,X0_M11,X2_M11,X1_M11
2024-05-15 10:00:00,SystemResetWarning,0827.4,4.99,000.00,025.9,025.2,000.0,034.2,027.8,026.6,0000.0,0007.66,0003.60,0003.07
2024-05-15 10:01:00,SystemResetWarning,0827.6,5.00,000.00,025.9,025.3,000.0,034.2,027.8,026.7,0000.0,0007.10,0003.62,0003.06
2024-05-15 10:02:00,SystemResetWarning,0827.8,5.00,000.00,026.0,025.3,000.0,034.2,027.8,026.7,0000.0,0006.35,0003.60,0003.05
2024-05-15 10:03:00,SystemResetWarning,0827.7,4.99,000.00,026.0,025.3,000.0,034.2,027.8,026.9,0000.0,0006.37,0003.59,0003.06
2024-05-15 10:04:00,SystemResetWarning,0827.8,4.99,000.00,026.0,025.3,000.0,034.2,027.8,027.6,0000.0,0006.31,0003.59,0003.06
2024-05-15 10:05:00,SystemResetWarning,0827.9,5.00,000.00,026.0,025.3,000.0,034.2,027.8,027.6,0000.0,0006.31,0003.59,0003.06
2024-05-15 10:06:00,SystemResetWarning,0827.5,5.00,000.00,026.0,025.3,000.0,034.2,027.8,027.4,0000.0,0006.01,0003.54,0003.06
2024-05-15 10:07:00,SystemResetWarning,0827.4,5.00,000.00,025.9,025.2,000.0,034.2,027.8,027.2,0000.0,0005.82,0003.49,0003.03
2024-05-15 10:08:00,SystemResetWarning,0827.4,5.00,000.00,025.9,025.2,000.0,034.2,027.7,026.9,0000.0,0005.86,0003.48,0003.03
2024-05-15 10:09:00,SystemResetWarning,0827.4,5.01,000.00,025.9,025.2,000.0,034.2,027.7,026.8,0000.0,0005.95,0003.49,0003.02
2024-05-15 10:10:00,SystemResetWarning,0827.4,5.01,000.00,025.9,025.2,000.0,034.2,027.7,026.7,0000.0,0006.00,0003.50,0003.02
2024-05-15 10:11:00,SystemResetWarning,0827.6,5.01,000.00,025.9,025.2,000.0,034.2,027.7,026.8,0000.0,0006.01,0003.53,0003.02
2024-05-15 10:12:00,SystemResetWarning,0827.9,4.99,000.00,025.9,025.2,000.0,034.2,027.7,026.9,0000.0,0005.92,0003.51,0003.01
2024-05-15 10:13:00,SystemResetWarning,0827.9,4.99,000.00,025.9,025.2,000.0,034.2,027.7,027.0,0000.0,0006.16,0003.49,0003.02
2024-05-15 10:14:00,SystemResetWarning,0827.7,5.02,000.00,025.9,025.2,000.0,034.2,027.7,027.1,0000.0,0006.11,0003.49,0003.02
2024-05-15 10:15:00,SystemResetWarning,0827.9,5.00,000.00,025.9,025.2,000.0,034.2,027.7,027.0,0000.0,0006.12,0003.49,0003.01
2024-05-15 10:16:00,SystemResetWarning,0827.8,5.00,000.00,025.9,025.2,000.0,034.3,027.7,027.0,0000.0,0005.87,0003.46,0003.00
2024-05-15 10:17:00,SystemResetWarning,0827.6,5.00,000.00,025.9,025.2,000.0,034.3,027.7,027.1,0000.0,0005.85,0003.46,0002.98
2024-05-15 10:18:00,SystemResetWarning,0827.4,5.00,000.00,025.9,025.2,000.0,034.3,027.7,026.9,0000.0,0005.83,0003.47,0002.98
2024-05-15 10:19:00,SystemResetWarning,0827.4,5.00,000.00,025.9,025.2,000.0,034.2,027.7,026.9,0000.0,0005.68,0003.44,0002.97
2024-05-15 10:20:00,SystemResetWarning,0827.4,5.00,000.00,025.9,025.1,000.0,034.2,027.7,026.9,0000.0,0005.67,0003.44,0002.96
2024-05-15 10:21:00,SystemResetWarning,0827.3,5.00,000.00,025.9,025.1,000.0,034.2,027.7,027.0,0000.0,0005.65,0003.40,0002.97
2024-05-15 10:22:00,SystemResetWarning,0827.3,5.00,000.00,025.9,025.1,000.0,034.2,027.7,027.0,0000.0,0005.83,0003.41,0002.98
2024-05-15 10:23:00,SystemResetWarning,0827.3,5.00,000.00,025.9,025.1,000.0,034.2,027.7,027.0,0000.0,0006.00,0003.44,0002.99
2024-05-15 10:24:00,SystemResetWarning,0827.3,5.00,000.00,025.9,025.1,000.0,034.2,027.7,027.2,0000.0,0005.85,0003.46,0003.00
2024-05-15 10:25:00,SystemResetWarning,0827.3,5.00,000.00,025.9,025.1,000.0,034.2,027.7,027.1,0000.0,0005.73,0003.45,0003.00
2024-05-15 10:26:00,SystemResetWarning,0827.3,5.00,000.00,025.9,025.1,000.0,034.2,027.7,026.8,0000.0,0005.67,0003.45,0003.00
2024-05-15 10:27:00,SystemResetWarning,0827.4,5.00,000.00,025.9,025.1,000.0,034.2,027.7,026.8,0000.0,0006.70,0003.48,0003.01
2024-05-15 10:28:00,SystemResetWarning,0827.4,5.00,000.00,025.9,025.2,000.0,034.2,027.7,026.8,0000.0,0007.40,0003.49,0003.02
2024-05-15 10:29:00,SystemResetWarning,0827.4,4.99,000.00,025.9,025.2,000.0,034.2,027.7,026.7,0000.0,0007.48,0003.51,0003.02
2024-05-15 10:30:00,SystemResetWarning,0827.5,4.99,000.00,025.9,025.2,000.0,034.2,027.7,026.6,0000.0,0007.48,0003.53,0003.05
2024-05-15 10:31:00,SystemResetWarning,0827.9,4.99,000.00,025.9,025.2,000.0,034.2,027.7,026.5,0000.0,0007.46,0003.53,0003.07
2024-05-15 10:32:00,SystemResetWarning,0827.7,5.00,000.00,025.9,025.2,000.0,034.2,027.7,026.5,0000.0,0007.47,0003.55,0003.07
2024-05-15 10:33:00,SystemResetWarning,0827.4,5.00,000.00,026.0,025.2,000.0,034.2,027.8,026.5,0000.0,0007.22,0003.52,0003.05
2024-05-15 10:34:00,SystemResetWarning,0827.5,5.01,000.00,026.0,025.2,000.0,034.2,027.8,026.5,0000.0,0006.98,0003.49,0003.04
2024-05-15 10:35:00,SystemResetWarning,0827.5,5.01,000.00,026.0,025.3,000.0,034.2,027.8,026.4,0000.0,0006.83,0003.47,0003.05
2024-05-15 10:36:00,SystemResetWarning,0827.5,5.00,000.00,026.0,025.3,000.0,034.3,027.8,026.4,0000.0,0007.00,0003.50,0003.04
2024-05-15 10:37:00,SystemResetWarning,0827.6,5.00,000.00,026.0,025.3,000.0,034.3,027.8,026.4,0000.0,0007.17,0003.52,0003.03
2024-05-15 10:38:00,SystemResetWarning,0827.5,5.01,000.00,026.0,025.3,000.0,034.3,027.8,026.4,0000.0,0006.50,0003.52,0003.03
2024-05-15 10:39:00,SystemResetWarning,0827.5,5.00,000.00,026.0,025.2,000.0,034.3,027.7,026.3,0000.0,0005.73,0003.51,0003.03
2024-05-15 10:40:00,SystemResetWarning,0827.6,4.98,000.00,025.7,023.2,000.0,034.3,026.7,026.7,0000.0,0005.62,0003.48,0003.03
2024-05-15 10:41:00,SystemResetWarning,0827.6,5.02,000.00,025.2,021.7,000.0,034.3,025.8,027.6,0000.0,0006.56,0003.49,0003.03
2024-05-15 10:42:00,SystemResetWarning,0827.4,5.00,000.00,025.0,021.8,000.0,034.2,025.6,028.1,0000.0,0006.59,0003.49,0003.03
2024-05-15 10:43:00,SystemResetWarning,0827.7,5.00,000.00,024.9,022.2,000.0,034.0,025.9,028.3,0000.0,0006.52,0003.47,0003.04
2024-05-15 10:44:00,SystemResetWarning,0827.5,5.01,000.00,024.9,022.6,000.0,033.8,026.2,028.5,0000.0,0006.58,0003.49,0003.06
2024-05-15 10:45:00,SystemResetWarning,0827.5,5.00,000.00,024.9,022.9,000.0,033.7,026.3,028.5,0000.0,0007.75,0003.54,0003.09
2024-05-15 10:46:00,SystemResetWarning,0827.5,4.99,000.00,024.9,023.2,000.0,033.7,026.5,028.5,0000.0,0007.80,0003.55,0003.11
2024-05-15 10:47:00,SystemResetWarning,0827.6,5.01,000.00,024.9,023.5,000.0,033.6,026.6,028.5,0000.0,0007.77,0003.56,0003.12
2024-05-15 10:48:00,SystemResetWarning,0827.6,4.99,000.00,024.9,023.7,000.0,033.6,026.6,028.4,0000.0,0007.87,0003.60,0003.13
2024-05-15 10:49:00,SystemResetWarning,0827.7,5.01,000.00,025.0,023.9,000.0,033.5,026.7,028.3,0000.0,0007.80,0003.59,0003.15
2024-05-15 10:50:00,SystemResetWarning,0827.7,4.99,000.00,025.0,024.0,000.0,033.5,026.8,028.2,0000.0,0007.82,0003.61,0003.16
2024-05-15 10:51:00,SystemResetWarning,0827.7,5.00,000.00,025.0,024.1,000.0,033.5,026.8,028.2,0000.0,0007.76,0003.64,0003.17
2024-05-15 10:52:00,SystemResetWarning,0827.7,5.01,000.00,025.1,024.2,000.0,033.5,026.8,028.3,0000.0,0007.53,0003.68,0003.19
2024-05-15 10:53:00,SystemResetWarning,0827.7,5.02,000.00,025.1,024.3,000.0,033.5,026.9,028.2,0000.0,0007.38,0003.69,0003.19
2024-05-15 10:54:00,SystemResetWarning,0827.7,5.01,000.00,025.1,024.4,000.0,033.5,026.9,028.2,0000.0,0007.49,0003.75,0003.21
2024-05-15 10:55:00,SystemResetWarning,0827.7,5.00,000.00,025.1,024.4,000.0,033.5,027.0,028.2,0000.0,0007.52,0003.76,0003.22
2024-05-15 10:56:00,SystemResetWarning,0827.7,4.99,000.00,025.2,024.5,000.0,033.5,027.0,028.2,0000.0,0006.52,0003.75,0003.22
2024-05-15 10:57:00,SystemResetWarning,0827.6,4.99,000.00,025.2,024.5,000.0,033.5,027.0,028.2,0000.0,0006.37,0003.77,0003.22
2024-05-15 10:58:00,SystemResetWarning,0827.6,4.99,000.00,025.2,024.5,000.0,033.5,027.0,028.5,0000.0,0006.50,0003.80,0003.25
2024-05-15 10:59:00,SystemResetWarning,0827.7,5.00,000.00,025.2,024.6,000.0,033.5,027.1,028.5,0000.0,0006.32,0003.78,0003.27
